Погода в Родничке

Россия / Саратовская область     51°25′17″N   42°54′36″E
темп.,
°C
ветер,
м/с
пор.,
м/с
влажн.,
%
обл.,
%
осадки,
мм/ч
давл.,
гПа
погр.,
м
9 марта, вт
вт901:00−10зсз229033 0.0 100921
04:00−11зсз129131 0.0 100921
07:00−13ссз12940 0.0 101021
10:00−10с238930 0.0 1011145
13:00−7сз348684 0.0 1012419
16:00−7сз469091 0.0 1013553
19:00−9сз5892100 0.1 1014430
22:00−14сз499483 0.1 1017193
10 марта, ср
ср1001:00−17зсз469777 0.0 1018115
04:00−18зсз469882 0.0 1020134
07:00−19зсз499881 0.0 1021168
10:00−17сз5109362 0.0 1023359
13:00−15сз578884 0.0 1025598
16:00−14сз588892 0.0 1025627
19:00−18зсз4694100 0.0 1026132
22:00−21сз469796 0.0 1028115
11 марта, чт
чт1101:00−23ссз34981 0.0 102961
04:00−24ссз33970 0.0 103138
07:00−25с34970 0.0 103239
10:00−22с25940 0.0 1033195
13:00−17ссз348523 0.0 1033343
16:00−15сз348414 0.0 1033470
19:00−18ссз339437 0.0 103322
22:00−20с239718 0.0 103420
12 марта, пт
пт1201:00−21ссв12950 0.0 103520
04:00−22с12970 0.0 103520
07:00−22с22970 0.0 103620
10:00−18ссв23930 0.0 1037140
13:00−13в128779 0.0 1036322
16:00−11юв228589 0.0 1036346
19:00−16ююв229358 0.0 103620
22:00−17ююв239529 0.0 103720
13 марта, сб
сб1301:00−18ююв34930 0.0 103748
04:00−18ююв44910 0.0 103760
07:00−17ююв47910 0.0 103690
10:00−13ююв598610 0.0 1036249
13:00−9ю5985100 0.0 1036446
16:00−8ю598293 0.0 1034659
19:00−11ююв598770 0.0 1032176
22:00−13ююв5108535 0.0 1032160